Weather History for Waycross, GA

Change the Weather History Date:

Saturday, May 4, 2013

  Actual Average (KAMG) Record (KAMG)
Temperature  
Mean Temperature 66 °F 71 °F  
Max Temperature 71 °F 83 °F 95 °F (2002)
Min Temperature 60 °F 58 °F 40 °F (1971)
Degree Days  
Heating Degree Days 0 0  
Month to date heating degree days 3  
Since 1 July heating degree days 1656  
Cooling Degree Days 0 6  
Month to date cooling degree days 23  
Year to date cooling degree days 177  
Growing Degree Days 16 (Base 50)    
Moisture  
Dew Point 62 °F    
Average Humidity 90    
Maximum Humidity 100    
Minimum Humidity 69    
Precipitation  
Precipitation 0.00 in 0.07 in 2.01 in (1978)
Month to date precipitation 0.27  
Year to date precipitation 15.89  
Snow  
Snow 0.00 in 0.00 in 0.00 in ()
Month to date snowfall 0.0  
Since 1 July snowfall 0.1  
Snow Depth -    
Sea Level Pressure  
Sea Level Pressure 29.82 in    
Wind  
Wind Speed 12 mph (East)    
Max Wind Speed 22 mph    
Max Gust Speed 36 mph    
Visibility 7 miles    
Events      
T = Trace of Precipitation, MM = Missing Value Source: NWS Daily Summary

Daily Weather History Graph

Daily Weather History Graph

Search for Another Location

Airport:

Trip Planner

Search our weather history database for the weather conditions in past years. The results will help you decide how hot, cold, wet, or windy it might be!

Date:

Astronomy

May. 04, 2013 Rise Set
Actual Time 6:41 AM EDT 8:11 PM EDT
Civil Twilight 6:16 AM EDT 8:37 PM EDT
Nautical Twilight 5:45 AM EDT 9:08 PM EDT
Astronomical Twilight 5:12 AM EDT 9:40 PM EDT
Moon 3:19 AM EDT (5/4) 3:26 PM EDT (5/4)
Length of Visible Light 14h 21m
Length of Day
13h 29m
Waning Crescent, 27% of the Moon is Illuminated
May 4
Waning Crescent
May 9
New
May 18
First Quarter
May 25
Full
May 31
Last Quarter

Hourly Weather History & Observations

Time (EDT) Temp. Dew Point Humidity Pressure Visibility Wind Dir Wind Speed Gust Speed Precip Events Conditions
12:15 AM 64.4 °F 62.6 °F 94% 29.89 in 7.0 mi ENE 5.8 mph - N/A   Mostly Cloudy
12:35 AM 64.4 °F 62.6 °F 94% 29.89 in 7.0 mi ENE 9.2 mph - N/A   Overcast
12:55 AM 64.4 °F 62.6 °F 94% 29.88 in 7.0 mi ENE 10.4 mph - N/A   Overcast
1:15 AM 64.4 °F 62.6 °F 94% 29.88 in 7.0 mi ENE 11.5 mph 16.1 mph N/A   Mostly Cloudy
1:35 AM 64.4 °F 62.6 °F 94% 29.87 in 7.0 mi East 10.4 mph - N/A   Overcast
1:55 AM 64.4 °F 62.6 °F 94% 29.87 in 7.0 mi East 11.5 mph - N/A   Overcast
2:15 AM 64.4 °F 62.6 °F 94% 29.86 in 7.0 mi ENE 12.7 mph 19.6 mph N/A   Overcast
2:35 AM 64.4 °F 62.6 °F 94% 29.85 in 7.0 mi ENE 12.7 mph 17.3 mph N/A   Overcast
2:55 AM 64.4 °F 62.6 °F 94% 29.84 in 7.0 mi ENE 11.5 mph - N/A   Overcast
3:15 AM 64.4 °F 60.8 °F 88% 29.84 in 7.0 mi ENE 9.2 mph - N/A   Scattered Clouds
3:35 AM 64.4 °F 60.8 °F 88% 29.84 in 7.0 mi ENE 9.2 mph 16.1 mph N/A   Overcast
3:55 AM 64.4 °F 60.8 °F 88% 29.83 in 7.0 mi NE 8.1 mph - N/A   Overcast
4:15 AM 64.4 °F 60.8 °F 88% 29.83 in 7.0 mi ENE 8.1 mph - N/A   Overcast
4:35 AM 62.6 °F 60.8 °F 94% 29.83 in 7.0 mi ENE 8.1 mph - N/A   Overcast
4:55 AM 62.6 °F 60.8 °F 94% 29.83 in 7.0 mi East 10.4 mph - N/A   Overcast
5:15 AM 62.6 °F 60.8 °F 94% 29.83 in 10.0 mi East 10.4 mph 19.6 mph N/A   Overcast
5:35 AM 62.6 °F 59.0 °F 88% 29.84 in 7.0 mi East 10.4 mph 16.1 mph N/A   Overcast
5:55 AM 62.6 °F 59.0 °F 88% 29.84 in 10.0 mi East 12.7 mph - N/A   Overcast
6:15 AM 62.6 °F 59.0 °F 88% 29.84 in 10.0 mi East 11.5 mph - N/A   Overcast
6:35 AM 62.6 °F 60.8 °F 94% 29.84 in 10.0 mi East 13.8 mph 17.3 mph N/A   Overcast
6:55 AM 62.6 °F 60.8 °F 94% 29.85 in 5.0 mi East 11.5 mph 17.3 mph N/A   Overcast
7:15 AM 62.6 °F 60.8 °F 94% 29.85 in 5.0 mi East 9.2 mph - N/A   Overcast
7:35 AM 62.6 °F 60.8 °F 94% 29.85 in 4.0 mi ENE 11.5 mph - N/A   Overcast
7:55 AM 60.8 °F 60.8 °F 100% 29.85 in 4.0 mi East 10.4 mph - N/A   Overcast
8:15 AM 60.8 °F 60.8 °F 100% 29.86 in 5.0 mi ENE 11.5 mph 16.1 mph N/A   Overcast
8:35 AM 60.8 °F 60.8 °F 100% 29.86 in 10.0 mi ENE 9.2 mph - N/A   Overcast
8:55 AM 62.6 °F 60.8 °F 94% 29.86 in 10.0 mi East 8.1 mph - N/A   Overcast
9:15 AM 62.6 °F 60.8 °F 94% 29.85 in 10.0 mi East 9.2 mph - N/A   Overcast
9:35 AM 62.6 °F 60.8 °F 94% 29.85 in 4.0 mi East 10.4 mph - N/A   Overcast
9:55 AM 62.6 °F 60.8 °F 94% 29.86 in 4.0 mi ENE 9.2 mph - N/A   Overcast
10:15 AM 64.4 °F 62.6 °F 94% 29.86 in 7.0 mi East 11.5 mph - N/A   Overcast
10:35 AM 64.4 °F 62.6 °F 94% 29.85 in 4.0 mi East 13.8 mph 21.9 mph N/A   Overcast
10:55 AM 64.4 °F 62.6 °F 94% 29.85 in 4.0 mi East 13.8 mph 19.6 mph N/A   Overcast
11:15 AM 64.4 °F 62.6 °F 94% 29.86 in 7.0 mi East 16.1 mph 21.9 mph N/A   Overcast
11:35 AM 66.2 °F 62.6 °F 88% 29.85 in 5.0 mi East 18.4 mph 26.5 mph N/A   Overcast
11:55 AM 66.2 °F 62.6 °F 88% 29.85 in 10.0 mi East 16.1 mph 27.6 mph N/A   Mostly Cloudy
12:15 PM 69.8 °F 62.6 °F 78% 29.84 in 10.0 mi East 16.1 mph 27.6 mph N/A   Mostly Cloudy
12:35 PM 69.8 °F 62.6 °F 78% 29.84 in 10.0 mi East 19.6 mph 27.6 mph N/A   Overcast
12:55 PM 69.8 °F 60.8 °F 73% 29.83 in 10.0 mi East 19.6 mph 27.6 mph N/A   Overcast
1:15 PM 69.8 °F 60.8 °F 73% 29.83 in 10.0 mi East 18.4 mph 26.5 mph N/A   Overcast
1:35 PM 69.8 °F 60.8 °F 73% 29.82 in 10.0 mi East 18.4 mph 26.5 mph N/A   Overcast
1:55 PM 69.8 °F 62.6 °F 78% 29.82 in 10.0 mi East 21.9 mph 27.6 mph N/A   Overcast
2:15 PM 69.8 °F 60.8 °F 73% 29.82 in 10.0 mi East 18.4 mph 24.2 mph N/A   Overcast
2:35 PM 71.6 °F 60.8 °F 69% 29.81 in 10.0 mi East 17.3 mph 28.8 mph N/A   Overcast
2:55 PM 69.8 °F 60.8 °F 73% 29.81 in 10.0 mi ESE 20.7 mph 31.1 mph N/A   Mostly Cloudy
3:15 PM 71.6 °F 60.8 °F 69% 29.81 in 10.0 mi ESE 19.6 mph 35.7 mph N/A   Overcast
3:35 PM 69.8 °F 60.8 °F 73% 29.81 in 10.0 mi East 18.4 mph 27.6 mph N/A   Overcast
3:55 PM 69.8 °F 60.8 °F 73% 29.81 in 10.0 mi East 20.7 mph 26.5 mph N/A   Overcast
4:15 PM 68.0 °F 62.6 °F 83% 29.80 in 10.0 mi East 12.7 mph 21.9 mph N/A   Overcast
4:35 PM 66.2 °F 62.6 °F 88% 29.81 in 5.0 mi East 20.7 mph 28.8 mph N/A   Overcast
4:55 PM 66.2 °F 62.6 °F 88% 29.80 in 7.0 mi East 16.1 mph 28.8 mph N/A   Overcast
5:15 PM 68.0 °F 62.6 °F 83% 29.79 in 7.0 mi East 15.0 mph 25.3 mph N/A   Overcast
5:35 PM 66.2 °F 62.6 °F 88% 29.79 in 10.0 mi East 15.0 mph 20.7 mph N/A   Overcast
5:55 PM 66.2 °F 62.6 °F 88% 29.80 in 10.0 mi East 16.1 mph 24.2 mph N/A   Overcast
6:15 PM 66.2 °F 62.6 °F 88% 29.79 in 7.0 mi East 15.0 mph 24.2 mph N/A   Overcast
6:35 PM 66.2 °F 62.6 °F 88% 29.79 in 10.0 mi East 15.0 mph 19.6 mph N/A   Overcast
6:55 PM 66.2 °F 62.6 °F 88% 29.79 in 7.0 mi East 12.7 mph 26.5 mph N/A   Overcast
7:15 PM 64.4 °F 62.6 °F 94% 29.79 in 7.0 mi East 11.5 mph 18.4 mph N/A   Overcast
7:35 PM 64.4 °F 62.6 °F 94% 29.78 in 7.0 mi East 13.8 mph - N/A   Overcast
7:55 PM 64.4 °F 62.6 °F 94% 29.78 in 5.0 mi East 11.5 mph 17.3 mph N/A   Overcast
8:15 PM 64.4 °F 62.6 °F 94% 29.78 in 10.0 mi East 12.7 mph 17.3 mph N/A   Overcast
8:35 PM 64.4 °F 62.6 °F 94% 29.78 in 4.0 mi East 11.5 mph - N/A   Overcast
8:55 PM 64.4 °F 62.6 °F 94% 29.78 in 5.0 mi East 11.5 mph - N/A   Overcast
9:15 PM 64.4 °F 64.4 °F 100% 29.78 in 4.0 mi East 11.5 mph - N/A   Overcast
9:35 PM 64.4 °F 64.4 °F 100% 29.78 in 4.0 mi ESE 15.0 mph 19.6 mph N/A   Overcast
9:55 PM 64.4 °F 64.4 °F 100% 29.78 in 7.0 mi East 15.0 mph 20.7 mph N/A   Overcast
10:15 PM 64.4 °F 64.4 °F 100% 29.78 in 7.0 mi East 13.8 mph 19.6 mph N/A   Overcast
10:35 PM 64.4 °F 64.4 °F 100% 29.79 in 4.0 mi ESE 12.7 mph 19.6 mph N/A   Overcast
10:55 PM 64.4 °F 64.4 °F 100% 29.78 in 4.0 mi East 11.5 mph 17.3 mph N/A   Overcast
11:15 PM 64.4 °F 64.4 °F 100% 29.78 in 4.0 mi ESE 13.8 mph 20.7 mph N/A   Overcast
11:35 PM 64.4 °F 64.4 °F 100% 29.78 in 3.0 mi East 16.1 mph 21.9 mph N/A   Overcast
11:55 PM 64.4 °F 64.4 °F 100% 29.77 in 4.0 mi ESE 13.8 mph 18.4 mph N/A   Overcast